Time,TemperatureF,DewpointF,PressureIn,WindDirection,WindDirectionDegrees,WindSpeedMPH,WindSpeedGustMPH,Humidity,HourlyPrecipIn,Conditions,Clouds,dailyrainin,SoftwareType,DateUTC
2013-07-30 00:00:00,79.8,75.9,30.14,SSE,158,0.0,1.0,88,0.00,,---,0.00,VWS V14.01,2013-07-30 04:00:00,
2013-07-30 00:30:00,80.0,74.7,30.13,SSE,158,0.0,4.0,84,0.00,,---,0.00,VWS V14.01,2013-07-30 04:30:00,
2013-07-30 01:00:00,80.0,75.4,30.13,SSE,158,1.0,4.0,86,0.00,,---,0.00,VWS V14.01,2013-07-30 05:00:00,
2013-07-30 01:30:00,79.7,75.5,30.12,South,180,0.0,4.0,87,0.00,,---,0.00,VWS V14.01,2013-07-30 05:30:00,
2013-07-30 02:00:00,78.6,75.1,30.12,South,180,0.0,0.0,89,0.00,,---,0.00,VWS V14.01,2013-07-30 06:00:00,
2013-07-30 02:30:00,77.8,75.0,30.12,South,180,0.0,0.0,91,0.00,,---,0.00,VWS V14.01,2013-07-30 06:30:00,
2013-07-30 03:00:00,77.4,74.2,30.11,South,180,0.0,1.0,90,0.00,,---,0.00,VWS V14.01,2013-07-30 07:00:00,
2013-07-30 03:30:00,77.3,74.8,30.10,South,180,0.0,0.0,92,0.00,,---,0.00,VWS V14.01,2013-07-30 07:30:00,
2013-07-30 04:00:00,76.2,74.3,30.09,South,180,0.0,0.0,94,0.00,,---,0.00,VWS V14.01,2013-07-30 08:00:00,
2013-07-30 04:30:00,75.2,74.0,30.09,South,180,0.0,0.0,96,0.00,,---,0.00,VWS V14.01,2013-07-30 08:30:00,
2013-07-30 05:00:00,74.7,73.8,30.09,South,180,0.0,0.0,97,0.00,,---,0.00,VWS V14.01,2013-07-30 09:00:00,
2013-07-30 05:30:00,74.3,73.4,30.10,South,180,0.0,0.0,97,0.00,,---,0.00,VWS V14.01,2013-07-30 09:30:00,
2013-07-30 06:00:00,74.1,73.5,30.10,South,180,0.0,0.0,98,0.00,,---,0.00,VWS V14.01,2013-07-30 10:00:00,
2013-07-30 06:30:00,73.9,73.6,30.11,South,180,0.0,0.0,99,0.00,,---,0.00,VWS V14.01,2013-07-30 10:30:00,
2013-07-30 07:00:00,73.7,73.4,30.12,South,180,0.0,0.0,99,0.00,,---,0.00,VWS V14.01,2013-07-30 11:00:00,
2013-07-30 07:30:00,74.0,73.7,30.13,South,180,0.0,1.0,99,0.00,,---,0.00,VWS V14.01,2013-07-30 11:30:00,
2013-07-30 08:00:00,75.8,75.5,30.14,South,180,0.0,2.0,99,0.00,,---,0.00,VWS V14.01,2013-07-30 12:00:00,
2013-07-30 08:30:00,79.1,76.2,30.14,South,180,0.0,4.0,91,0.00,,---,0.00,VWS V14.01,2013-07-30 12:30:00,
2013-07-30 09:00:00,81.7,78.5,30.15,SSE,158,1.0,4.0,90,0.00,,---,0.00,VWS V14.01,2013-07-30 13:00:00,
2013-07-30 09:30:00,83.4,78.8,30.15,SSE,158,1.0,4.0,86,0.00,,---,0.00,VWS V14.01,2013-07-30 13:30:00,
2013-07-30 10:00:00,85.1,78.6,30.15,ESE,112,1.0,3.0,81,0.00,,---,0.00,VWS V14.01,2013-07-30 14:00:00,
2013-07-30 10:30:00,86.4,79.1,30.15,SSE,158,1.0,4.0,79,0.00,,---,0.00,VWS V14.01,2013-07-30 14:30:00,
2013-07-30 11:00:00,86.8,77.9,30.15,SSE,158,1.0,5.0,75,0.00,,---,0.00,VWS V14.01,2013-07-30 15:00:00,
2013-07-30 11:30:00,87.6,78.3,30.15,SSE,158,2.0,5.0,74,0.00,,---,0.00,VWS V14.01,2013-07-30 15:30:00,
2013-07-30 12:00:00,88.6,76.2,30.14,SSE,158,2.0,6.0,67,0.00,,---,0.00,VWS V14.01,2013-07-30 16:00:00,
2013-07-30 12:30:00,89.4,75.2,30.14,SSE,158,2.0,5.0,63,0.00,,---,0.00,VWS V14.01,2013-07-30 16:30:00,
2013-07-30 13:00:00,89.7,77.3,30.13,SSE,158,3.0,6.0,67,0.00,,---,0.00,VWS V14.01,2013-07-30 17:00:00,
2013-07-30 13:30:00,90.7,76.4,30.12,SSE,158,2.0,6.0,63,0.00,,---,0.00,VWS V14.01,2013-07-30 17:30:00,
2013-07-30 14:00:00,90.9,77.5,30.11,SSE,158,3.0,7.0,65,0.00,,---,0.00,VWS V14.01,2013-07-30 18:00:00,
2013-07-30 14:30:00,91.4,77.0,30.10,SSE,158,3.0,7.0,63,0.00,,---,0.00,VWS V14.01,2013-07-30 18:30:00,
2013-07-30 15:00:00,92.5,76.6,30.09,SSE,158,2.0,6.0,60,0.00,,---,0.00,VWS V14.01,2013-07-30 19:00:00,
2013-07-30 15:30:00,93.1,76.7,30.08,SSE,158,3.0,9.0,59,0.00,,---,0.00,VWS V14.01,2013-07-30 19:30:00,
2013-07-30 16:00:00,93.0,76.6,30.06,South,180,2.0,9.0,59,0.00,,---,0.00,VWS V14.01,2013-07-30 20:00:00,
2013-07-30 16:30:00,90.9,76.1,30.06,ESE,112,1.0,6.0,62,0.00,,---,0.00,VWS V14.01,2013-07-30 20:30:00,
2013-07-30 17:00:00,90.5,75.7,30.06,SE,135,0.0,2.0,62,0.00,,---,0.00,VWS V14.01,2013-07-30 21:00:00,
2013-07-30 17:30:00,89.5,80.1,30.06,NNW,338,1.0,6.0,74,0.00,,---,0.00,VWS V14.01,2013-07-30 21:30:00,
2013-07-30 18:00:00,86.0,77.6,30.05,NE,45,3.0,11.0,76,0.00,,---,0.00,VWS V14.01,2013-07-30 22:00:00,
2013-07-30 18:30:00,84.2,75.8,30.07,ESE,112,1.0,9.0,76,0.00,,---,0.00,VWS V14.01,2013-07-30 22:30:00,
2013-07-30 19:00:00,83.5,77.4,30.06,ENE,68,0.0,7.0,82,0.00,,---,0.00,VWS V14.01,2013-07-30 23:00:00,
2013-07-30 19:30:00,83.1,78.8,30.07,ENE,68,1.0,5.0,87,0.00,,---,0.00,VWS V14.01,2013-07-30 23:30:00,
2013-07-30 20:00:00,82.5,77.9,30.08,ENE,68,2.0,5.0,86,0.00,,---,0.00,VWS V14.01,2013-07-31 00:00:00,
2013-07-30 20:30:00,82.0,77.8,30.09,ENE,68,1.0,4.0,87,0.00,,---,0.00,VWS V14.01,2013-07-31 00:30:00,
2013-07-30 21:00:00,81.9,76.6,30.09,ENE,68,1.0,6.0,84,0.00,,---,0.00,VWS V14.01,2013-07-31 01:00:00,
2013-07-30 21:30:00,81.3,75.7,30.10,West,270,1.0,4.0,83,0.00,,---,0.00,VWS V14.01,2013-07-31 01:30:00,
2013-07-30 22:00:00,80.2,75.3,30.11,West,270,0.0,1.0,85,0.00,,---,0.00,VWS V14.01,2013-07-31 02:00:00,
2013-07-30 22:30:00,79.0,74.8,30.11,West,270,0.0,1.0,87,0.00,,---,0.00,VWS V14.01,2013-07-31 02:30:00,
2013-07-30 23:00:00,78.3,75.1,30.11,West,270,0.0,1.0,90,0.00,,---,0.00,VWS V14.01,2013-07-31 03:00:00,
2013-07-30 23:30:00,77.6,75.4,30.12,West,270,0.0,1.0,93,0.00,,---,0.00,VWS V14.01,2013-07-31 03:30:00,